Location: Beetenbrück
(52.8113°N, 9.5946°E)
Time: 22:09:56
(UTC+00:00)

Lacrosse 5 rocket - Pass Details

Date: 14 April 2026
Orbit: 390 x 473 km, 57.0° (Epoch: 11 May)

Event Time Altitude Azimuth Distance (km) Brightness Sun altitude
Rises 21:04:12 0° 270° (W) 2,290 5.0 -21.0°
Reaches altitude 10° 21:06:19 10° 278° (W) 1,430 4.0 -21.2°
Maximum altitude 21:09:21 40° 351° (N) 591 1.9 -21.4°
Enters shadow 21:10:05 34° 27° (NNE) 671 2.0 -21.5°
